Regional Weather Roundup
Issued by NWS

Home | Current Version | Previous Version | Text Only | Print | Product List | Glossary On
Versions: 1 2 3 4 5 6 7 8 9 10 11 12 13 14 15 16 17 18 19 20 21 22 23 24 25 26 27 28 29 30 31 32 33 34 35 36 37 38 39 40 41 42 43 44 45 46 47 48 49 50
000
ASUS43 KMKX 221821
RWRWI

WISCONSIN REGIONAL WEATHER ROUNDUP
NATIONAL WEATHER SERVICE MILWAUKEE/SULLIVAN WI
100 PM CDT FRI SEP 22 2017

NOTE: "FAIR" INDICATES FEW OR NO CLOUDS BELOW 12,000 FEET WITH NO
SIGNIFICANT WEATHER AND/OR OBSTRUCTIONS TO VISIBILITY.

WIZ001-002-006>008-014>016-023>028-221900-
NORTHWEST WISCONSIN

CITY           SKY/WX    TMP DP  RH WIND       PRES   REMARKS
SUPERIOR ARPT  LGT RAIN  67  65  92 S10G17    29.83R
6HR MIN TEMP:  60; 6HR MAX TEMP:  68; 6HR PCP:  0.73;

ASHLAND        CLOUDY    68  64  87 S12       29.90R
6HR MIN TEMP:  65; 6HR MAX TEMP:  72; 6HR PCP:  0.18;

HAYWARD        CLOUDY    70  64  81 SE6       29.94S
6HR MIN TEMP:  64; 6HR MAX TEMP:  72; 6HR PCP:  3.33;

SIREN          PTSUNNY   76  69  78 SE9G18    29.89F
6HR MIN TEMP:  69; 6HR MAX TEMP:  76; 6HR PCP:  0.03;

CUMBERLAND     CLOUDY    77  70  78 E9        29.93S
RICE LAKE      CLOUDY    78  71  81 E8        29.93F HAZE
6HR MIN TEMP:  69; 6HR MAX TEMP:  78; 6HR PCP:  0.09;

CHETEK         CLOUDY    78  71  78 E8        29.93F HX  81
6HR MIN TEMP:  69; 6HR MAX TEMP:  79;

LADYSMITH      CLOUDY    70  66  85 E9        29.98F
6HR MIN TEMP:  68; 6HR MAX TEMP:  76; 6HR PCP:  0.04;

EAU CLAIRE     MOSUNNY   89  70  53 S14G21    29.90S HX  94
6HR MIN TEMP:  73; 6HR MAX TEMP:  89;

MENOMONIE      MOSUNNY   89  70  54 S6        29.90S HX  94
6HR MIN TEMP:  69; 6HR MAX TEMP:  89;

NEW RICHMOND   MOSUNNY   85  69  59 S13       29.88F HX  88
6HR MIN TEMP:  73; 6HR MAX TEMP:  85;

OSCEOLA        MOSUNNY   85  71  62 SE10G20   29.89F HX  91
6HR MIN TEMP:  74; 6HR MAX TEMP:  85;

$$

WIZ003>005-009-010-017-018-221900-
NORTH CENTRAL WISCONSIN

CITY           SKY/WX    TMP DP  RH WIND       PRES   REMARKS
MANITOWISH WTR NOT AVBL
ARBOR VITAE    TSTM      64  63  94 SE7       30.05F
WOODRUFF       TSTM      64  63  94 SE7       30.05F
RHINELANDER    LGT RAIN  65  64  97 VRB3      30.07F
6HR MIN TEMP:  64; 6HR MAX TEMP:  78; 6HR PCP:  0.18;

EAGLE RIVER    RAIN      64  64  99 SE3       30.05S
6HR MIN TEMP:  64; 6HR MAX TEMP:  78;

LAND O LAKES   TSTM      64  63  97 S3        30.08R
6HR MIN TEMP:  64; 6HR MAX TEMP:  77; 6HR PCP:  0.63;

PHILLIPS       CLOUDY    67  67 100 CALM      30.06R THUNDER
6HR MIN TEMP:  64; 6HR MAX TEMP:  73; 6HR PCP:  2.41;

TOMAHAWK       CLOUDY    66  62  85 NW7       30.06S
6HR MIN TEMP:  65; 6HR MAX TEMP:  76;

MEDFORD        CLOUDY    85  71  63 S13       29.98S HX  89
6HR MIN TEMP:  67; 6HR MAX TEMP:  85;

MERRILL        CLOUDY    82  73  72 NW5       30.00R HX  87
6HR MIN TEMP:  67; 6HR MAX TEMP:  84;

$$

WIZ029-030-035-036-043>047-221900-
CENTRAL WISCONSIN

CITY           SKY/WX    TMP DP  RH WIND       PRES   REMARKS
WAUSAU         PTSUNNY   85  69  58 S12       29.98S HX  89
6HR MIN TEMP:  66; 6HR MAX TEMP:  86; 6HR PCP: TRACE;

MOSINEE        MOSUNNY   84  70  61 S15       29.99F HX  88
MARSHFIELD     SUNNY     88  68  51 S14G22    29.97F HX  91
6HR MIN TEMP:  68; 6HR MAX TEMP:  88;

STEVENS POINT  SUNNY     86  68  54 S14G20    29.99F HX  89
6HR MIN TEMP:  67; 6HR MAX TEMP:  86;

WAUPACA        SUNNY     90  68  49 S13G20    30.00F HX  93
6HR MIN TEMP:  65; 6HR MAX TEMP:  90;

WAUTOMA        NOT AVBL
WISC RAPIDS    SUNNY     88  70  55 S15G22    29.99F HX  93
6HR MIN TEMP:  69; 6HR MAX TEMP:  88;

CAMP DOUGLAS   MOSUNNY   90  68  48 SW12G18   29.98S HX  93
$$

WIZ011>013-019>022-031-037>040-048>050-221900-
NORTHEAST WISCONSIN

CITY           SKY/WX    TMP DP  RH WIND       PRES   REMARKS
ANTIGO         CLOUDY    81  70  70 S7        30.02S HX  84
6HR MIN TEMP:  65; 6HR MAX TEMP:  82;

SHAWANO        CLOUDY    90  69  49 SW7       29.98F HX  94
6HR MIN TEMP:  66; 6HR MAX TEMP:  90;

OCONTO         CLOUDY    89  69  52 SW10G17   29.98F HX  93
6HR MIN TEMP:  60; 6HR MAX TEMP:  89;

STURGEON BAY   NOT AVBL
GREEN BAY      SUNNY     88  72  58 S12       30.00F HX  94
6HR MIN TEMP:  67; 6HR MAX TEMP:  88;

MANITOWOC      SUNNY     82  71  69 S12       30.03S HX  86
6HR MIN TEMP:  64; 6HR MAX TEMP:  88;

APPLETON       MOSUNNY   88  64  45 SW13G18   30.01S HX  89
CLINTONVILLE   CLOUDY    90  66  45 SW12G18   29.99F HX  92
OSHKOSH        SUNNY     88  71  57 SW13G21   30.02R HX  94
6HR MIN TEMP:  69; 6HR MAX TEMP:  88;

$$

WIZ032>034-041-042-053>061-221900-
SOUTHWEST WISCONSIN

CITY           SKY/WX    TMP DP  RH WIND       PRES   REMARKS
LA CROSSE      SUNNY     93  71  48 S17G25    29.93F HX 100
6HR MIN TEMP:  76; 6HR MAX TEMP:  93;

SPARTA         SUNNY     89  68  50 S13G21    29.97S HX  93
6HR MIN TEMP:  73; 6HR MAX TEMP:  89;

VIROQUA        SUNNY     88  69  53 SW17      30.00S HX  92
6HR MIN TEMP:  71; 6HR MAX TEMP:  88;

BOSCOBEL       SUNNY     92  67  43 S13G22    29.98S HX  95
6HR MIN TEMP:  72; 6HR MAX TEMP:  93;

PRAIRIE DU CHI SUNNY     90  65  43 S12G21    29.97S HX  91
6HR MIN TEMP:  74; 6HR MAX TEMP:  90;

PLATTEVILLE    SUNNY     89  70  53 S14       30.03R HX  94
6HR MIN TEMP:  69; 6HR MAX TEMP:  89;

$$

WIZ056-057-062-063-064-067-068-221900-
SOUTH CENTRAL WISCONSIN

CITY           SKY/WX    TMP DP  RH WIND       PRES   REMARKS
REEDSBURG      SUNNY     90  69  50 S14G22    30.00S HX  95
6HR MIN TEMP:  69; 6HR MAX TEMP:  90;

BARABOO/DELLS  SUNNY     88  66  48 S15       30.01S HX  90
6HR MIN TEMP:  72; 6HR MAX TEMP:  88;

LONE ROCK      SUNNY     92  69  47 S14G22    30.00S HX  97
6HR MIN TEMP:  72; 6HR MAX TEMP:  92;

MINERAL POINT  SUNNY     90  68  48 S15       30.03S HX  93
MADISON        MOSUNNY   88  68  51 SW10G21   30.02S HX  91
6HR MIN TEMP:  70; 6HR MAX TEMP:  89;

MIDDLETON      SUNNY     90  66  45 SW14G23   30.03S HX  92
6HR MIN TEMP:  71; 6HR MAX TEMP:  90;

WATERTOWN      SUNNY     89  69  50 SW14      30.03S HX  93
6HR MIN TEMP:  68; 6HR MAX TEMP:  90;

MONROE         SUNNY     88  64  45 SW18G28   30.05S HX  89
JANESVILLE     MOSUNNY   93  64  38 SW14      30.03F HX  95
$$

WIZ051-052-058>065-066-070>072-221900-
SOUTHEAST WISCONSIN

CITY           SKY/WX    TMP DP  RH WIND       PRES   REMARKS
MILWAUKEE      MOSUNNY   94  65  38 SW9       30.03F HX  96
6HR MIN TEMP:  74; 6HR MAX TEMP:  94;

WAUKESHA       SUNNY     90  61  37 S9G18     30.06S HX  89
MILWAUKEE/TIMM SUNNY     91  59  33 W13G22    30.04F HX  90
RACINE         SUNNY     89  70  53 SE10      30.06S HX  94
6HR MIN TEMP:  69; 6HR MAX TEMP:  93;

BURLINGTON     SUNNY     92  66  41 SW8       30.05S HX  94
6HR MIN TEMP:  59; 6HR MAX TEMP:  93;

KENOSHA        SUNNY     93  66  40 W10       30.05F HX  96
6HR MIN TEMP:  68; 6HR MAX TEMP:  93;

FOND DU LAC    SUNNY     88  67  49 SW13      30.03R HX  91
6HR MIN TEMP:  71; 6HR MAX TEMP:  88;

SHEBOYGAN      SUNNY     91  69  48 SW13      30.03S HX  96
6HR MIN TEMP:  64; 6HR MAX TEMP:  91;

WEST BEND        N/A     90  61  37 SW10G21   30.05R HX  89
JUNEAU         SUNNY     86  69  56 SW12G22   30.06R HX  90
6HR MIN TEMP:  69; 6HR MAX TEMP:  86;

$$

LSZ147-162-221900-
LAKE SUPERIOR

STATION/POSITION TIME  TEMP    WIND        PRES    WAVE
                       AIR SEA DIR/SP/G            HT/PER
                 (UTC) (F)     (DEG/KT/KT) (MB)    (FT/S)
W MID LAKE BUOY  1750   62 54  180/ 16/ 19 1008.3F   3/ 4
DEVILS ISLAND    1800   67     180/ 16/ 20 1010.6R
PORT WING        1740   69     120/  9/ 16 1010.2F
SAXON HARBOR     1730   66     190/ 10/ 16 1011.5F
$$

LMZ867-665-643>646-221900-
LAKE MICHIGAN

STATION/POSITION TIME  TEMP    WIND        PRES    WAVE
                       AIR SEA DIR/SP/G            HT/PER
                 (UTC) (F)     (DEG/KT/KT) (MB)    (FT/S)
S GREEN BAY BUOY 1800   74 69  190/  6/  8 1015.4
N MID LAKE BUOY  1750   69 66  190/ 16/ 17 1016.3F   2/ 4
NORTHPORT PIER   1740   74     140/ 10/ 12 1015.6S
KEWAUNEE LAKESHO 1754   67     180/ 13/ 14 1015.9R
SHEBOYGAN LAKESH 1800   72     170/ 17/ 18 1016.5F
PORT WA



USA.gov is the U.S. government's official web portal to all federal, state and local government web resources and services.